Wind_Speed
24 25 27 29 30 32 33 35 36 37 38 38 39 40 41 44 46 49 52 54 57 57 61 57 59 62 66 71 72 73 72 74 74 71 69 71 72 77
27 28 29 30 31 33 34 35 36 37 38 39 40 42 44 46 48 49 51 54 56 57 58 58 64 66 68 70 74 75 74 73 72 69 68 70 73 76
31 32 33 33 34 35 36 37 38 39 40 41 42 43 45 47 48 49 50 52 54 56 60 61 63 63 67 70 75 75 72 72 70 66 68 69 71 75
36 36 37 37 37 38 38 38 39 40 41 42 43 45 47 49 49 49 52 56 54 55 60 65 64 64 71 71 74 73 70 69 64 65 65 68 71 76
40 40 41 41 41 41 41 41 41 42 43 44 44 47 48 49 51 50 55 59 56 60 64 64 66 65 71 71 72 68 66 67 65 63 65 68 72 74
43 44 45 45 45 44 43 44 44 45 45 45 46 48 47 50 52 54 58 59 60 60 60 63 61 70 71 72 69 65 65 64 62 62 64 67 70 72
47 48 49 49 48 48 46 47 48 49 48 47 46 43 49 50 54 56 58 62 58 61 61 60 63 68 71 71 65 64 65 61 61 61 63 65 69 74
50 51 53 52 52 51 50 52 49 48 46 49 48 46 48 53 57 58 65 63 62 61 62 64 63 68 71 65 60 61 62 62 59 59 61 65 70 74
56 53 56 56 53 54 52 52 52 52 50 49 49 58 54 55 59 65 66 64 66 63 63 64 66 66 63 58 58 60 61 60 57 58 60 64 68 71
56 59 58 59 57 56 55 49 56 63 59 51 48 55 58 60 60 63 65 66 61 64 64 63 62 63 58 57 58 59 60 57 55 56 58 62 66 69
61 59 59 58 59 57 53 60 58 57 57 50 46 60 61 63 59 61 66 62 65 64 65 62 62 59 56 57 58 58 57 54 53 54 58 60 65 65
62 62 61 60 59 57 56 55 55 57 57 61 60 54 63 68 63 67 60 62 63 67 60 59 58 56 54 53 55 55 56 53 52 53 57 60 63 61
64 64 62 60 60 59 56 55 58 60 60 56 54 62 68 64 65 63 68 64 67 63 56 55 54 52 52 54 57 55 53 51 51 53 55 59 63 56
62 61 61 62 63 62 58 58 68 62 61 61 54 61 61 61 72 68 69 61 60 52 53 50 51 49 52 55 57 56 52 50 52 53 54 58 61 51
64 64 62 63 65 65 65 65 66 61 64 64 61 61 71 72 66 70 60 58 52 49 50 50 49 50 52 57 57 54 49 50 52 54 55 58 58 46
66 66 68 69 72 73 74 69 64 64 71 69 69 73 64 64 70 61 59 51 49 50 50 49 49 51 55 57 55 52 48 50 52 54 55 58 55 36
71 73 75 75 75 73 70 65 69 71 68 71 65 65 63 62 62 58 51 47 48 48 45 47 51 51 54 57 53 48 47 49 50 53 55 58 53 35
82 82 82 80 77 73 72 75 73 71 57 65 67 64 58 56 57 53 48 48 46 44 47 52 52 54 54 53 51 47 47 49 52 53 56 58 51 30
91 91 88 85 80 76 74 70 60 58 61 63 62 59 59 58 51 51 49 49 48 48 51 54 52 53 51 48 47 45 47 48 52 53 57 58 44 26
76 75 75 76 73 69 65 61 59 57 57 56 55 56 57 53 48 47 46 46 48 48 51 51 52 53 47 45 46 45 47 51 53 54 57 54 36 22
70 68 66 66 65 63 61 59 60 59 55 54 56 55 48 48 47 47 49 47 48 49 49 50 50 49 45 43 43 46 48 51 54 55 58 44 26 19
69 65 63 61 59 58 57 57 58 56 54 57 55 49 49 48 47 47 50 51 51 48 49 49 49 46 43 42 43 46 49 51 53 56 54 35 22 18
73 66 62 61 58 53 51 53 53 58 61 55 47 47 46 48 46 46 49 50 52 47 50 49 46 42 40 40 44 47 48 51 53 56 45 27 20 19
Wind_Direction
296 297 297 298 299 299 300 300 301 301 300 300 301 301 301 302 302 305 307 310 312 316 314 318 318 319 320 324 325 327 327 329 329 329 328 327 328 329
298 298 298 300 302 302 302 302 302 302 302 301 301 301 303 302 304 305 309 312 313 311 313 318 319 320 319 323 326 326 326 328 328 327 327 326 328 330
296 298 299 301 302 301 301 302 303 303 303 303 303 303 302 302 304 307 310 314 313 310 313 319 319 319 321 321 327 327 326 327 327 326 326 327 330 332
294 296 298 300 304 303 303 303 302 301 301 301 302 302 302 303 306 308 311 315 310 310 314 319 319 316 321 320 322 325 325 326 326 324 325 326 331 335
291 294 296 298 301 301 302 302 302 301 302 303 303 303 301 302 301 301 309 313 310 310 315 318 320 316 320 319 322 325 325 327 323 323 325 329 334 336
288 291 292 297 297 299 299 299 299 300 302 301 306 308 305 298 294 298 311 314 311 311 314 315 316 318 320 318 323 323 325 325 321 324 327 332 335 337
287 288 291 294 293 296 296 297 299 299 299 302 299 306 306 296 292 304 311 313 310 314 313 313 313 317 316 319 322 321 324 323 321 325 329 332 333 336
284 285 289 291 292 294 296 297 297 300 299 302 288 297 303 302 300 302 307 310 309 312 313 310 312 316 312 319 320 323 324 323 322 326 331 332 332 337
283 282 286 287 288 290 295 296 289 300 292 300 296 293 295 295 294 297 305 309 311 309 311 312 308 311 314 317 320 323 325 322 323 327 331 332 334 337
279 282 282 286 287 291 293 287 285 295 296 297 294 297 298 298 300 301 305 305 309 309 309 308 308 312 316 317 321 324 322 323 324 327 329 332 335 336
277 278 281 282 285 285 288 287 282 286 288 294 294 297 297 294 303 300 306 307 305 307 307 306 309 313 314 320 323 321 322 323 325 327 330 333 334 334
275 277 278 281 282 284 287 280 278 283 282 288 297 297 294 294 303 305 306 306 305 307 303 307 309 310 316 323 323 322 324 323 325 328 331 331 333 333
274 276 277 276 280 282 286 277 287 284 288 291 295 288 290 291 299 307 303 305 303 302 303 305 307 312 318 322 323 324 322 322 326 329 330 330 333 332
271 273 274 277 279 281 280 275 281 287 289 292 287 290 289 297 305 296 303 302 302 302 305 304 309 315 319 320 320 322 322 323 326 327 328 330 333 330
267 269 274 277 278 279 282 282 283 286 288 293 286 290 286 294 297 295 296 298 297 303 304 306 312 317 320 321 319 320 321 324 325 326 328 330 332 326
267 270 274 277 279 283 285 283 283 288 290 292 287 287 289 291 292 294 292 294 299 302 305 310 315 317 317 319 318 318 321 324 324 326 327 329 331 318
271 271 274 280 284 282 279 278 286 288 289 288 290 283 290 288 291 290 295 297 300 303 307 313 317 315 316 315 315 318 321 323 323 323 326 329 330 314
269 271 275 278 277 279 279 281 285 285 283 277 280 285 287 288 285 288 290 295 297 303 308 311 315 314 312 314 316 317 319 321 323 323 325 329 327 307
269 270 273 275 276 277 279 278 277 279 275 276 280 281 286 284 286 288 290 297 299 305 307 310 312 311 312 313 313 315 319 322 321 324 325 328 320 297
270 271 271 272 273 275 276 276 279 276 277 280 280 280 282 280 281 286 296 298 299 302 307 310 310 310 309 313 314 316 320 321 322 324 325 326 314 286
268 270 270 271 270 270 270 271 271 273 274 276 274 275 274 280 283 286 291 296 299 303 305 306 306 304 309 309 311 317 321 321 323 323 325 320 302 279
267 268 269 270 270 270 269 268 268 270 269 273 267 274 275 280 283 286 289 293 297 301 305 304 302 304 305 307 314 318 320 322 322 322 323 313 291 275
265 264 266 266 266 264 262 262 263 266 267 265 267 273 276 277 280 281 286 295 298 296 300 302 301 302 304 310 316 317 320 321 320 322 319 302 280 269
Height
5813 5811 5809 5807 5805 5802 5800 5797 5794 5791 5788 5786 5782 5778 5774 5769 5765 5760 5755 5749 5743 5738 5730 5723 5715 5707 5697 5687 5679 5669 5659 5648 5636 5624 5612 5601 5590 5577
5807 5805 5803 5801 5798 5796 5793 5790 5787 5783 5780 5777 5773 5769 5765 5760 5755 5750 5745 5740 5733 5728 5721 5714 5705 5696 5687 5678 5669 5658 5648 5637 5625 5614 5603 5592 5580 5568
5801 5799 5797 5794 5792 5789 5786 5782 5779 5775 5772 5768 5765 5761 5757 5752 5747 5742 5736 5730 5724 5718 5711 5703 5694 5686 5677 5668 5658 5649 5638 5627 5616 5604 5594 5583 5572 5559
5794 5792 5790 5787 5784 5781 5778 5775 5771 5767 5763 5759 5755 5751 5747 5742 5737 5731 5725 5720 5714 5707 5700 5692 5684 5676 5667 5657 5648 5638 5628 5618 5607 5596 5585 5577 5563 5550
5786 5784 5782 5779 5776 5773 5770 5766 5763 5759 5755 5750 5746 5742 5737 5732 5727 5722 5717 5711 5704 5697 5690 5683 5675 5667 5657 5647 5637 5628 5618 5607 5599 5588 5577 5567 5554 5542
5777 5775 5773 5770 5767 5764 5761 5757 5754 5750 5746 5741 5737 5732 5727 5721 5716 5712 5706 5700 5694 5688 5681 5672 5664 5656 5647 5637 5628 5618 5608 5598 5589 5580 5569 5557 5545 5533
5767 5765 5763 5760 5757 5754 5751 5747 5744 5739 5736 5732 5727 5722 5718 5712 5707 5702 5696 5689 5683 5675 5669 5662 5656 5647 5637 5627 5617 5608 5599 5589 5579 5569 5560 5548 5537 5523
5757 5754 5752 5749 5746 5743 5740 5737 5733 5728 5725 5721 5716 5713 5708 5703 5698 5692 5686 5679 5673 5666 5658 5651 5643 5635 5625 5616 5608 5600 5590 5580 5570 5560 5551 5540 5528 5514
5744 5742 5739 5737 5736 5732 5729 5725 5720 5717 5714 5710 5706 5702 5697 5692 5687 5682 5675 5669 5662 5653 5646 5639 5632 5625 5616 5607 5599 5590 5581 5571 5561 5552 5543 5533 5520 5506
5730 5729 5725 5724 5722 5719 5716 5714 5711 5707 5705 5700 5695 5690 5686 5680 5675 5669 5663 5658 5652 5643 5635 5627 5621 5614 5606 5598 5588 5581 5572 5562 5552 5543 5533 5522 5512 5499
5716 5714 5712 5711 5709 5706 5704 5703 5694 5695 5692 5687 5683 5679 5673 5667 5662 5657 5650 5645 5639 5632 5623 5616 5611 5602 5596 5589 5580 5570 5562 5553 5544 5535 5525 5515 5503 5491
5700 5698 5697 5695 5693 5692 5690 5687 5685 5682 5677 5675 5671 5666 5662 5655 5650 5644 5638 5631 5625 5620 5612 5605 5598 5592 5584 5577 5571 5560 5552 5545 5535 5527 5517 5507 5496 5484
5684 5682 5682 5681 5678 5677 5676 5670 5669 5667 5665 5661 5658 5654 5648 5644 5637 5631 5626 5618 5612 5605 5600 5593 5586 5579 5573 5565 5559 5550 5541 5534 5527 5517 5508 5498 5488 5478
5667 5666 5666 5664 5661 5661 5661 5661 5656 5653 5650 5647 5644 5640 5634 5628 5623 5618 5612 5606 5600 5594 5589 5582 5575 5569 5563 5555 5548 5539 5533 5525 5518 5509 5500 5491 5481 5472
5650 5650 5648 5646 5644 5644 5644 5642 5639 5639 5635 5632 5629 5625 5620 5616 5611 5606 5600 5594 5587 5582 5577 5572 5566 5559 5554 5547 5539 5530 5521 5516 5510 5502 5493 5483 5473 5465
5633 5631 5630 5628 5627 5628 5628 5625 5625 5621 5618 5615 5614 5608 5604 5600 5597 5593 5586 5580 5576 5571 5565 5560 5554 5548 5542 5536 5529 5521 5514 5507 5500 5491 5483 5475 5465 5458
5613 5612 5612 5611 5611 5611 5609 5609 5607 5604 5603 5599 5596 5592 5589 5586 5582 5578 5573 5568 5564 5560 5555 5549 5544 5538 5531 5525 5518 5511 5505 5498 5491 5482 5473 5465 5457 5451
5592 5592 5593 5594 5594 5594 5593 5591 5589 5589 5587 5584 5581 5578 5574 5571 5567 5564 5559 5556 5552 5547 5544 5538 5533 5528 5522 5516 5509 5502 5496 5489 5482 5473 5464 5455 5449 5444
5571 5572 5574 5575 5575 5573 5573 5573 5571 5571 5569 5567 5565 5563 5560 5556 5553 5550 5547 5544 5540 5536 5532 5527 5521 5515 5509 5504 5500 5493 5486 5480 5471 5464 5455 5448 5440 5437
5550 5550 5551 5552 5553 5553 5554 5555 5554 5552 5552 5551 5549 5547 5545 5542 5539 5537 5535 5532 5529 5524 5520 5516 5510 5506 5499 5495 5489 5485 5477 5470 5462 5454 5447 5439 5433 5431
5530 5530 5531 5532 5533 5534 5535 5536 5535 5534 5535 5534 5533 5532 5529 5528 5527 5525 5523 5521 5517 5514 5509 5504 5499 5494 5489 5484 5479 5473 5466 5460 5453 5445 5437 5430 5426 5425
5511 5510 5512 5513 5514 5515 5516 5516 5516 5518 5518 5518 5517 5516 5515 5515 5513 5513 5511 5509 5506 5502 5499 5494 5489 5484 5478 5474 5469 5462 5455 5449 5442 5434 5427 5422 5419 5419
5490 5491 5492 5494 5496 5497 5498 5499 5500 5501 5502 5501 5502 5501 5502 5502 5500 5500 5499 5496 5494 5489 5486 5482 5478 5473 5469 5465 5459 5452 5445 5438 5432 5425 5418 5414 5413 5413